EW9259 Weather Reports


time (UTC)temp
C
wind
direction
speed
KPH
gust
KPH
rain 1hr
cm
rain 24hr
cm
rain mn
cm
humidity
%
barometer
mb
20260504003506 23 175 8.0 17.7 0.00 0.00 0.00 45 1016.1
20260504003007 23 176 8.0 17.7 0.00 0.00 0.00 44 1016.0
20260504002505 23 171 8.0 17.7 0.00 0.00 0.00 44 1016.0
20260504002006 23 169 6.4 14.5 0.00 0.00 0.00 44 1016.0
20260504001507 23 171 6.4 16.1 0.00 0.00 0.00 44 1016.1
20260504001006 23 173 8.0 17.7 0.00 0.00 0.00 44 1016.0
20260504000506 23 169 8.0 20.9 0.00 0.00 0.00 43 1016.0
20260504000007 23 165 8.0 20.9 0.00 0.00 0.00 43 1016.1
20260503235506 23 172 6.4 17.7 0.00 0.00 0.00 43 1016.2
20260503235006 23 185 1.6 17.7 0.00 0.00 0.00 43 1016.2
20260503234506 23 179 3.2 20.9 0.00 0.00 0.00 43 1016.3
20260503234006 24 171 6.4 20.9 0.00 0.00 0.00 43 1016.3
20260503233505 24 168 3.2 16.1 0.00 0.00 0.00 43 1016.2
20260503233007 24 0 0.0 11.3 0.00 0.00 0.00 43 1016.3
20260503232506 24 0 0.0 6.4 0.00 0.00 0.00 43 1016.3
20260503232006 24 165 3.2 16.1 0.00 0.00 0.00 44 1016.4
20260503231506 24 166 6.4 19.3 0.00 0.00 0.00 43 1016.4
20260503231005 24 164 8.0 19.3 0.00 0.00 0.00 42 1016.5
20260503230507 24 167 8.0 17.7 0.00 0.00 0.00 42 1016.4
20260503230006 24 169 9.7 19.3 0.00 0.00 0.00 43 1016.3
20260503225006 24 164 9.7 22.5 0.00 0.00 0.00 43 1016.3
20260503224506 24 166 9.7 22.5 0.00 0.00 0.00 43 1016.4
20260503224006 24 167 9.7 19.3 0.00 0.00 0.00 43 1016.5
20260503223506 24 171 8.0 17.7 0.00 0.00 0.00 42 1016.6
20260503223006 24 178 6.4 20.9 0.00 0.00 0.00 43 1016.8
20260503222506 24 177 8.0 20.9 0.00 0.00 0.00 42 1016.8
20260503221005 24 176 9.7 19.3 0.00 0.00 0.00 41 1016.9
20260503220506 25 172 8.0 19.3 0.00 0.00 0.00 42 1017.2
20260503220006 25 169 8.0 19.3 0.00 0.00 0.00 42 1017.2
20260503215506 25 165 8.0 19.3 0.00 0.00 0.00 42 1016.9
20260503215007 25 157 6.4 22.5 0.00 0.00 0.00 41 1016.8
20260503214006 25 165 9.7 20.9 0.00 0.00 0.00 41 1017.3
20260503213006 25 170 8.0 17.7 0.00 0.00 0.00 40 1017.3
20260503212506 25 168 9.7 19.3 0.00 0.00 0.00 41 1017.3
20260503212006 25 168 9.7 20.9 0.00 0.00 0.00 40 1017.3
20260503211006 26 159 8.0 16.1 0.00 0.00 0.00 40 1017.6
20260503210506 25 164 8.0 16.1 0.00 0.00 0.00 43 1017.8
20260503205505 25 192 8.0 20.9 0.00 0.00 0.00 42 1018.0
20260503205006 25 178 6.4 22.5 0.00 0.00 0.00 41 1018.2
20260503204506 25 191 6.4 22.5 0.00 0.00 0.00 41 1018.1
20260503204006 25 200 8.0 19.3 0.00 0.00 0.00 43 1018.4
20260503203506 25 179 8.0 19.3 0.00 0.00 0.00 43 1018.5
20260503203006 25 184 8.0 19.3 0.00 0.00 0.00 42 1018.5
20260503202506 25 205 4.8 19.3 0.00 0.00 0.00 41 1018.8
20260503202006 25 187 6.4 19.3 0.00 0.00 0.00 43 1018.8
20260503201006 25 149 8.0 17.7 0.00 0.00 0.00 43 1019.0
20260503200006 25 182 6.4 17.7 0.00 0.00 0.00 43 1019.4
20260503195506 25 170 6.4 17.7 0.00 0.00 0.00 44 1019.4
20260503195005 25 173 8.0 17.7 0.00 0.00 0.00 44 1019.5
20260503194506 25 175 8.0 16.1 0.00 0.00 0.00 44 1019.6
20260503194006 24 162 8.0 17.7 0.00 0.00 0.00 44 1019.6
20260503193505 24 162 8.0 17.7 0.00 0.00 0.00 43 1019.7
20260503192506 24 177 6.4 16.1 0.00 0.00 0.00 43 1019.9
20260503192006 25 181 6.4 17.7 0.00 0.00 0.00 43 1020.0
20260503191505 25 170 6.4 17.7 0.00 0.00 0.00 44 1020.2
20260503190506 24 170 8.0 20.9 0.00 0.00 0.00 43 1020.3
20260503190006 24 165 9.7 20.9 0.00 0.00 0.00 45 1020.4
20260503185506 24 163 9.7 20.9 0.00 0.00 0.00 44 1020.4
20260503185006 24 166 8.0 19.3 0.00 0.00 0.00 44 1020.4
20260503184506 24 179 8.0 24.1 0.00 0.00 0.00 45 1020.7
20260503184005 23 177 9.7 24.1 0.00 0.00 0.00 44 1020.6
20260503183506 24 173 8.0 22.5 0.00 0.00 0.00 45 1020.6
20260503183006 23 174 9.7 22.5 0.00 0.00 0.00 44 1020.8
20260503182505 23 161 9.7 22.5 0.00 0.00 0.00 45 1021.0
20260503182006 23 159 8.0 22.5 0.00 0.00 0.00 44 1021.0
20260503181506 23 169 6.4 19.3 0.00 0.00 0.00 45 1021.1
20260503181006 23 162 6.4 16.1 0.00 0.00 0.00 45 1021.1
20260503180506 23 156 8.0 17.7 0.00 0.00 0.00 47 1021.4
20260503180006 23 161 8.0 17.7 0.00 0.00 0.00 45 1021.4
20260503175506 23 152 8.0 17.7 0.00 0.00 0.00 45 1021.6
20260503175006 23 150 8.0 24.1 0.00 0.00 0.00 45 1021.5
20260503174506 23 168 8.0 24.1 0.00 0.00 0.00 45 1021.6
20260503174005 23 186 4.8 19.3 0.00 0.00 0.00 45 1021.7
20260503173506 23 174 6.4 19.3 0.00 0.00 0.00 46 1021.8
20260503173007 23 186 6.4 19.3 0.00 0.00 0.00 47 1021.9
20260503172506 23 193 4.8 20.9 0.00 0.00 0.00 47 1022.0
20260503172005 23 187 1.6 20.9 0.00 0.00 0.00 45 1022.1
20260503171506 23 0 0.0 4.8 0.00 0.00 0.00 49 1022.1
20260503171006 23 169 3.2 17.7 0.00 0.00 0.00 49 1022.3
20260503170506 22 181 6.4 17.7 0.00 0.00 0.00 46 1022.3
20260503131006 15 0 0.0 0.0 0.00 0.00 0.00 72 1023.1
20260503130506 15 0 0.0 0.0 0.00 0.00 0.00 74 1023.1
20260503110505 10 0 0.0 0.0 0.00 0.00 0.00 88 1022.0
20260503090505 10 0 0.0 0.0 0.00 0.00 0.00 86 1022.0
20260503081005 11 0 0.0 0.0 0.00 0.00 0.00 81 1021.9
20260503080506 12 0 0.0 0.0 0.00 0.00 0.00 81 1022.0
20260503072505 12 0 0.0 0.0 0.00 0.00 0.00 81 1022.1
20260503072005 12 0 0.0 0.0 0.00 0.00 0.00 81 1022.2
20260503071505 12 0 0.0 0.0 0.00 0.00 0.00 81 1022.3
20260503071006 12 0 0.0 0.0 0.00 0.00 0.00 81 1022.2
20260503070505 12 0 0.0 0.0 0.00 0.00 0.00 81 1022.3
20260503055006 13 0 0.0 0.0 0.00 0.00 0.00 81 1022.4
20260503054505 13 0 0.0 0.0 0.00 0.00 0.00 80 1022.4
20260503054005 13 0 0.0 0.0 0.00 0.00 0.00 79 1022.3
20260503053506 13 0 0.0 0.0 0.00 0.00 0.00 79 1022.4
20260503053005 13 0 0.0 0.0 0.00 0.00 0.00 79 1022.5
20260503052505 13 0 0.0 0.0 0.00 0.00 0.00 78 1022.5
20260503052005 13 0 0.0 0.0 0.00 0.00 0.00 77 1022.5
20260503051505 13 0 0.0 0.0 0.00 0.00 0.00 77 1022.5
20260503051005 13 0 0.0 0.0 0.00 0.00 0.00 77 1022.6
20260503050505 14 0 0.0 0.0 0.00 0.00 0.00 76 1022.6
20260503050006 14 0 0.0 0.0 0.00 0.00 0.00 75 1022.5
20260503045505 14 0 0.0 0.0 0.00 0.00 0.00 74 1022.4
20260503045005 14 0 0.0 0.0 0.00 0.00 0.00 74 1022.4
20260503044506 14 0 0.0 0.0 0.00 0.00 0.00 73 1022.4
20260503044005 15 0 0.0 0.0 0.00 0.00 0.00 72 1022.4
20260503043505 15 0 0.0 0.0 0.00 0.00 0.00 72 1022.4
20260503043005 15 0 0.0 0.0 0.00 0.00 0.00 72 1022.4
20260503042505 15 0 0.0 0.0 0.00 0.00 0.00 73 1022.5
20260503042005 15 0 0.0 0.0 0.00 0.00 0.00 73 1022.5
20260503041506 15 0 0.0 0.0 0.00 0.00 0.00 72 1022.6
20260503041005 15 0 0.0 0.0 0.00 0.00 0.00 71 1022.7
20260503040505 14 0 0.0 0.0 0.00 0.00 0.00 72 1022.7
20260503040005 14 0 0.0 0.0 0.00 0.00 0.00 73 1022.8
20260503035505 14 0 0.0 0.0 0.00 0.00 0.00 73 1022.7
20260503035005 14 0 0.0 0.0 0.00 0.00 0.00 73 1022.6
20260503034005 14 0 0.0 0.0 0.00 0.00 0.00 75 1022.3
20260503033505 14 0 0.0 0.0 0.00 0.00 0.00 74 1022.2
20260503032505 14 0 0.0 0.0 0.00 0.00 0.00 78 1022.1
20260503032005 15 0 0.0 0.0 0.00 0.00 0.00 75 1022.0
20260503031506 15 0 0.0 0.0 0.00 0.00 0.00 69 1022.0
20260503031004 15 0 0.0 0.0 0.00 0.00 0.00 68 1021.9
20260503030505 15 0 0.0 0.0 0.00 0.00 0.00 70 1021.8
20260503030007 15 0 0.0 0.0 0.00 0.00 0.00 72 1021.8
20260503025505 15 0 0.0 0.0 0.00 0.00 0.00 73 1021.8
20260503025005 15 0 0.0 0.0 0.00 0.00 0.00 74 1021.8
20260503024505 15 0 0.0 0.0 0.00 0.00 0.00 75 1021.8
20260503024005 15 0 0.0 0.0 0.00 0.00 0.00 79 1021.9
20260503023504 15 0 0.0 0.0 0.00 0.00 0.00 76 1021.9
20260503023006 15 0 0.0 0.0 0.00 0.00 0.00 71 1021.7
20260503022505 15 0 0.0 0.0 0.00 0.00 0.00 70 1021.6
20260503022004 15 0 0.0 0.0 0.00 0.00 0.00 71 1021.7
20260503021505 15 0 0.0 0.0 0.00 0.00 0.00 76 1021.8
20260503020505 16 0 0.0 0.0 0.00 0.00 0.00 72 1021.6
20260503020005 16 0 0.0 0.0 0.00 0.00 0.00 69 1021.6
20260503015505 17 0 0.0 0.0 0.00 0.00 0.00 67 1021.6
20260503015005 17 0 0.0 0.0 0.00 0.00 0.00 60 1021.6
20260503014505 17 0 0.0 0.0 0.00 0.00 0.00 59 1021.5
20260503014005 17 0 0.0 0.0 0.00 0.00 0.00 58 1021.5
20260503013505 18 0 0.0 0.0 0.00 0.00 0.00 57 1021.5
20260503013005 18 0 0.0 0.0 0.00 0.00 0.00 56 1021.4
20260503012506 19 0 0.0 0.0 0.00 0.00 0.00 54 1021.4
20260503012004 19 0 0.0 0.0 0.00 0.00 0.00 51 1021.2
20260503011504 19 0 0.0 0.0 0.00 0.00 0.00 49 1021.2
20260503011004 20 0 0.0 0.0 0.00 0.00 0.00 49 1021.2
20260503010505 20 0 0.0 0.0 0.00 0.00 0.00 49 1021.1
20260503010005 20 0 0.0 0.0 0.00 0.00 0.00 49 1021.1
20260503005505 20 0 0.0 0.0 0.00 0.00 0.00 48 1020.9
20260503005004 20 0 0.0 0.0 0.00 0.00 0.00 48 1021.0
20260503004505 20 0 0.0 0.0 0.00 0.00 0.00 48 1021.0
20260503004006 20 0 0.0 0.0 0.00 0.00 0.00 48 1021.0